Preview of NWS' New Version of Forecast
This preview is not operational and should not be used for support decisions.

Regional Weather Roundup (RWR)

Issued by National Weather Service (NWS)

                            
000
ASUS45 KBOI 212310
RWRID 

IDAHO REGIONAL WEATHER ROUNDUP
NATIONAL WEATHER SERVICE BOISE ID
500 PM MDT SAT SEP 21 2019

NOTE: "FAIR" INDICATES FEW OR NO CLOUDS BELOW 12000 FEET
WITH NO SIGNIFICANT WEATHER AND/OR OBSTRUCTIONS TO VISIBILITY

IDZ012-014-220000-
SOUTHWEST IDAHO

  
CITY           SKY/WX    TMP DP  RH WIND       PRES   REMARKS
BOISE          SUNNY     69  40  34 W9        30.07F                  
CALDWELL       SUNNY     72  42  34 VRB5      30.07F                  
MOUNTAIN HOME  SUNNY     71  35  27 NW13      30.06F                  
$$

IDZ016-017-220000-
SOUTHCENTRAL IDAHO

  
CITY           SKY/WX    TMP DP  RH WIND       PRES   REMARKS
BURLEY         SUNNY     63  37  38 W8        30.09F                  
JEROME         SUNNY     67  38  34 W12       30.10F                  
TWIN FALLS     SUNNY     65  34  31 NW10      30.10F                  
$$

IDZ019>023-220000-
SOUTHEAST IDAHO

  
CITY           SKY/WX    TMP DP  RH WIND       PRES   REMARKS
IDAHO FALLS    CLOUDY    57  39  51 SW12      30.11F                  
POCATELLO      PTSUNNY   62  34  35 W9        30.11F                  
REXBURG        PTSUNNY   57  40  52 SW9       30.10F                  
$$

IDZ006-010-011-018-031-032-220000-
CENTRAL IDAHO MOUNTAINS

  
CITY           SKY/WX    TMP DP  RH WIND       PRES   REMARKS
MCCALL         PTSUNNY   61  36  39 W9        30.10F                  
HAILEY         CLOUDY    61  39  44 S3        30.12S                  
STANLEY          N/A     60  29  30 VRB6      30.13F                  
SALMON         MOSUNNY   61  40  45 NE8       30.07F                  
CHALLIS        CLOUDY    65  34  31 VRB5      30.05F                  
$$

IDZ002-004-006-007-026-220000-
NORTHERN IDAHO

  
CITY           SKY/WX    TMP DP  RH WIND       PRES   REMARKS
LEWISTON       PTSUNNY   73  46  38 CALM      30.02F                  
LOWELL           N/A     68  55  63 CALM      30.04F                  
COEUR D'ALENE  PTSUNNY   65  47  52 S9        30.04F                  
MULLAN PASS    CLOUDY    46  40  79 CALM      30.11F                  
$$